TimeCST,TemperatureF,Dew PointF,Humidity,Sea Level PressureIn,VisibilityMPH,Wind Direction,Wind SpeedMPH,Gust SpeedMPH,PrecipitationIn,Events,Conditions,WindDirDegrees,DateUTC
12:53 AM,39.9,39.0,97,30.31,9.0,Calm,Calm,-,N/A,,Clear,0,2012-11-19 06:53:00
1:53 AM,39.9,39.0,97,30.32,8.0,Calm,Calm,-,N/A,,Clear,0,2012-11-19 07:53:00
2:53 AM,39.0,37.0,93,30.31,9.0,Calm,Calm,-,N/A,,Clear,0,2012-11-19 08:53:00
3:53 AM,39.0,37.0,93,30.31,8.0,Calm,Calm,-,N/A,,Clear,0,2012-11-19 09:53:00
4:53 AM,37.9,37.0,97,30.31,9.0,Calm,Calm,-,N/A,,Clear,0,2012-11-19 10:53:00
5:53 AM,37.9,36.0,93,30.31,7.0,Calm,Calm,-,N/A,,Clear,0,2012-11-19 11:53:00
6:53 AM,39.0,37.0,93,30.32,7.0,Calm,Calm,-,N/A,,Clear,0,2012-11-19 12:53:00
7:53 AM,44.1,41.0,89,30.34,7.0,Calm,Calm,-,N/A,,Clear,0,2012-11-19 13:53:00
8:53 AM,48.9,44.1,83,30.33,8.0,Calm,Calm,-,N/A,,Clear,0,2012-11-19 14:53:00
9:53 AM,54.0,46.0,75,30.33,10.0,North,3.5,-,N/A,,Clear,10,2012-11-19 15:53:00
10:53 AM,57.9,45.0,62,30.32,10.0,East,4.6,-,N/A,,Clear,100,2012-11-19 16:53:00
11:53 AM,61.0,46.9,60,30.30,9.0,Calm,Calm,-,N/A,,Clear,0,2012-11-19 17:53:00
12:53 PM,62.1,46.0,56,30.27,10.0,West,4.6,-,N/A,,Clear,260,2012-11-19 18:53:00
1:53 PM,66.0,46.0,48,30.25,10.0,NE,5.8,-,N/A,,Clear,50,2012-11-19 19:53:00
2:53 PM,66.0,45.0,47,30.23,10.0,Calm,Calm,-,N/A,,Clear,0,2012-11-19 20:53:00
3:53 PM,64.9,46.0,50,30.21,10.0,Calm,Calm,-,N/A,,Clear,0,2012-11-19 21:53:00
4:53 PM,57.9,46.9,67,30.20,10.0,Calm,Calm,-,N/A,,Clear,0,2012-11-19 22:53:00
5:53 PM,51.1,46.9,86,30.21,10.0,Calm,Calm,-,N/A,,Clear,0,2012-11-19 23:53:00
6:53 PM,50.0,45.0,83,30.23,10.0,Calm,Calm,-,N/A,,Clear,0,2012-11-20 00:53:00
7:53 PM,48.0,45.0,89,30.23,9.0,Calm,Calm,-,N/A,,Clear,0,2012-11-20 01:53:00
9:53 PM,45.0,43.0,93,30.22,9.0,Calm,Calm,-,N/A,,Clear,0,2012-11-20 03:53:00
10:53 PM,44.1,42.1,93,30.21,9.0,Calm,Calm,-,N/A,,Clear,0,2012-11-20 04:53:00
11:53 PM,43.0,41.0,93,30.21,8.0,Calm,Calm,-,N/A,,Clear,0,2012-11-20 05:53:00